Location: Be?chatów
(51.3665°N, 19.3745°E)
Time: 07:20:59
(UTC+00:00)

NOSS 3-1 (A) - Pass Details

Date: 19 May 2025
Orbit: 667 x 1541 km, 63.4° (Epoch: 12 June)

Event Time Altitude Azimuth Distance (km) Brightness Sun altitude
Exits shadow 20:49:58 10° 202° (SSW) 2,168 5.0 -14.8°
Maximum altitude 20:54:44 56° 125° (SE) 944 3.1 -15.1°
Drops below altitude 10° 21:00:31 10° 49° (NE) 2,620 6.0 -15.5°
Sets 21:03:21 0° 46° (NE) 3,706 6.8 -15.6°
